Regional Weather Roundup
Issued by NWS

Home | Current Version | Previous Version | Text Only | Print | Product List | Glossary On
Versions: 1 2 3 4 5 6 7 8 9 10 11 12 13 14 15 16 17 18 19 20 21 22 23 24 25 26 27 28 29 30 31 32 33 34 35 36 37 38 39 40 41 42 43 44 45 46 47 48 49 50
000
ASUS44 KOUN 010810
RWROK

WEATHER ROUNDUP FOR OKLAHOMA
NATIONAL WEATHER SERVICE NORMAN OK
300 AM CDT SUN MAY 01 2016

NOTE: "FAIR" INDICATES FEW OR NO CLOUDS BELOW 12,000 FEET WITH NO
      SIGNIFICANT WEATHER AND/OR OBSTRUCTIONS TO VISIBILITY.

OKZ001>007-009>012-014-015-017-010900-
NORTHWEST OKLAHOMA AND THE PANHANDLE

CITY           SKY/WX    TMP DP  RH WIND       PRES   REMARKS
GAGE           MOCLDY    43  35  73 NW9       30.03F
GUYMON         MOCLDY    42  32  67 NW13      30.09R
ENID/WOODRING  PTCLDY    46  41  81 NW8       29.97F
$$

OKZ016-021>023-033>039-044-045-010900-
SOUTHWEST OKLAHOMA

CITY           SKY/WX    TMP DP  RH WIND       PRES   REMARKS
LAWTON/REGL    CLEAR     53  43  68 N14       29.99R
FREDERICK      CLEAR     53  43  68 N13       29.98R
CLINTON        CLOUDY    47  37  68 N15G24    30.04R
HOBART         CLEAR     50  39  66 N15       30.02R
$$

OKZ018>020-024>031-010900-
CENTRAL OKLAHOMA

CITY           SKY/WX    TMP DP  RH WIND       PRES   REMARKS
OKLAHOMA CITY  PTCLDY    52  42  69 N15       29.97S
OKC/WILEY POST CLEAR     50  41  71 NW10      29.98S
STILLWATER     CLEAR     48  42  80 NW8       29.97S
GUTHRIE        CLEAR     49  42  77 NW6       29.98S
$$

OKZ008-013-054>072-010900-
NORTHEAST OKLAHOMA

CITY           SKY/WX    TMP DP  RH WIND       PRES   REMARKS
TULSA          CLEAR     54  46  74 W3        29.93S
TULSA/JONES    CLEAR     50  47  89 CALM      29.95S
PONCA CITY     CLEAR     47  41  80 NW5       29.96F
BARTLESVILLE   CLEAR     44  41  89 CALM      29.96R
MUSKOGEE       CLEAR     52  47  83 NW5       29.95F
$$

OKZ032-040>043-046>053-073>077-010900-
SOUTH CENTRAL/SOUTHEAST OKLAHOMA

CITY           SKY/WX    TMP DP  RH WIND       PRES   REMARKS
ARDMORE/DWNTWN CLEAR     55  45  67 NE8       29.92F
MCALESTER      CLEAR     56  49  77 N6        29.95S
$$





USA.gov is the U.S. government's official web portal to all federal, state and local government web resources and services.